Other Public Products
Issued by NWS Charleston, SC

Current Version | Previous Version | Graphics & Text | Print | Product List | Glossary On
Versions: 1 2 3 4 5 6 7 8 9 10 11 12 13 14 15 16 17 18 19 20 21 22 23 24 25 26 27 28 29 30 31 32 33 34 35 36 37 38 39 40 41 42 43 44 45 46 47 48 49 50
000 FPUS82 KCHS 191827 OPUCHS TEST...KCHS/KSAV Gateway Observations...TEST National Weather Service Charleston SC 200 PM EDT THU APR 19 2018 NOTE: "fair" indicates few or no clouds below 12,000 feet with no significant weather and/or obstructions to visibility. SCZ050-WAZ558-NCZ071-TXZ119-213-PAZ071-DCZ001-FLZ074-172-MI076- NYZ176-178-MAZ016-IL014-TNZ027-NJZ106-GAZ044-MD014-191900- ...Gateway Observations for Charleston International... CITY SKY/WX TMP DP RH WIND PRES REMARKS Chas Airport FAIR 82 57 42 W18G26 29.91F 6HR MIN TEMP: 66; 6HR MAX TEMP: 83; Seattle MOSUNNY 53 41 63 VRB3 30.27S 6HR MIN TEMP: 41; 6HR MAX TEMP: 54; Charlotte FAIR 70 38 31 NW21G28 29.94R 6HR MIN TEMP: 66; 6HR MAX TEMP: 75; Dallas DFW PTSUNNY 67 33 28 N13G22 30.36S 6HR MIN TEMP: 49; 6HR MAX TEMP: 67; Dallas Love PTSUNNY 68 35 29 NE10 30.37S 6HR MIN TEMP: 51; 6HR MAX TEMP: 68; Philladelphia LGT RAIN 46 41 82 NW18 29.80R 6HR MIN TEMP: 47; 6HR MAX TEMP: 51; 6HR PCP: TRACE; Wash National PTSUNNY 56 37 49 NW23G31 29.84R 6HR MIN TEMP: 51; 6HR MAX TEMP: 56; 6HR PCP: 0.03; Baltimore PTSUNNY 53 34 48 NW24G32 29.82R 6HR MIN TEMP: 50; 6HR MAX TEMP: 61; 6HR PCP: TRACE; Miami PTSUNNY 82 63 52 SE8 30.10F 6HR MIN TEMP: 70; 6HR MAX TEMP: 83; Detroit FAIR 50 21 32 NW23G29 30.14R 6HR MIN TEMP: 37; 6HR MAX TEMP: 51; Newark LGT RAIN 44 40 85 W12 29.76R FOG 6HR MIN TEMP: 43; 6HR MAX TEMP: 45; 6HR PCP: 0.02; Laguardia LGT RAIN 44 38 79 NW13 29.75R 6HR MIN TEMP: 42; 6HR MAX TEMP: 47; 6HR PCP: 0.01; J F K LGT RAIN 43 39 86 NW13 29.76R 6HR MIN TEMP: 42; 6HR MAX TEMP: 45; 6HR PCP: 0.01; Boston Logan CLOUDY 41 35 79 W7 29.69R 6HR MIN TEMP: 36; 6HR MAX TEMP: 42; 6HR PCP: 0.17; Ft. Lauderdale PTSUNNY 80 65 59 SE13 30.10F 6HR MIN TEMP: 68; 6HR MAX TEMP: 81; Chicago O`Hare FAIR 50 28 42 N9 30.34R 6HR MIN TEMP: 33; 6HR MAX TEMP: 50; Chicago Midway FAIR 50 24 36 N13 30.34S 6HR MIN TEMP: 35; 6HR MAX TEMP: 50; Houston Bush FAIR 75 42 30 NE14G20 30.27F 6HR MIN TEMP: 63; 6HR MAX TEMP: 75; Houston Hobby FAIR 74 38 27 N16 30.26S 6HR MIN TEMP: 65; 6HR MAX TEMP: 74; Nashville PTSUNNY 49 28 44 N8G18 30.30S 6HR MIN TEMP: 42; 6HR MAX TEMP: 50; Atlanta FAIR 66 42 41 W17G26 30.09R 6HR MIN TEMP: 62; 6HR MAX TEMP: 66; $$ GAZ044-118-TXZ119-213-NCZ071-DCZ001-MDZ014-506-PAZ021-071-NJZ106- NYZ176-178-MAZ106-OHZ011-021-055-MIZ076-KYZ091-ILZ014-INZ047- MNZ060-ONZ431-191900- ...Gateway Observations for Savannah International... CITY SKY/WX TMP DP RH WIND PRES REMARKS Savannah Arpt FAIR 83 60 45 W21G33 29.97F 6HR MIN TEMP: 66; 6HR MAX TEMP: 84; Atlanta FAIR 66 42 41 W17G26 30.09R 6HR MIN TEMP: 62; 6HR MAX TEMP: 66; Charlotte FAIR 70 38 31 NW21G28 29.94R 6HR MIN TEMP: 66; 6HR MAX TEMP: 75; Dallas DFW PTSUNNY 67 33 28 N13G22 30.36S 6HR MIN TEMP: 49; 6HR MAX TEMP: 67; Houston Bush FAIR 75 42 30 NE14G20 30.27F 6HR MIN TEMP: 63; 6HR MAX TEMP: 75; Wash National PTSUNNY 56 37 49 NW23G31 29.84R 6HR MIN TEMP: 51; 6HR MAX TEMP: 56; 6HR PCP: 0.03; Wash Dulles PTSUNNY 55 34 45 NW30G44 29.85R 6HR MIN TEMP: 48; 6HR MAX TEMP: 58; 6HR PCP: 0.01; Baltimore PTSUNNY 53 34 48 NW24G32 29.82R 6HR MIN TEMP: 50; 6HR MAX TEMP: 61; 6HR PCP: TRACE; Philadelphia LGT RAIN 46 41 82 NW18 29.80R 6HR MIN TEMP: 47; 6HR MAX TEMP: 51; 6HR PCP: TRACE; Newark LGT RAIN 44 40 85 W12 29.76R FOG 6HR MIN TEMP: 43; 6HR MAX TEMP: 45; 6HR PCP: 0.02; Laguardia LGT RAIN 44 38 79 NW13 29.75R 6HR MIN TEMP: 42; 6HR MAX TEMP: 47; 6HR PCP: 0.01; J F K LGT RAIN 43 39 86 NW13 29.76R 6HR MIN TEMP: 42; 6HR MAX TEMP: 45; 6HR PCP: 0.01; Boston CLOUDY 41 35 79 W7 29.69R 6HR MIN TEMP: 36; 6HR MAX TEMP: 42; 6HR PCP: 0.17; Pittsburg FLURRIES 37 29 72 NW17 30.05R WCI 27 6HR MIN TEMP: 33; 6HR MAX TEMP: 37; 6HR PCP: 0.02; Akron CLOUDY 39 28 64 NW15 30.10R WCI 31 6HR MIN TEMP: 33; 6HR MAX TEMP: 40; 6HR PCP: 0.04; Cleveland CLOUDY 42 29 59 NW20 30.16R 6HR MIN TEMP: 35; 6HR MAX TEMP: 43; Cincinnati PTSUNNY 46 29 51 N13G20 30.25R 6HR MIN TEMP: 37; 6HR MAX TEMP: 47; Columbus CLOUDY 44 31 60 NW13G24 30.21R Detroit FAIR 50 21 32 NW23G29 30.14R 6HR MIN TEMP: 37; 6HR MAX TEMP: 51; Chicago O`Hare FAIR 50 28 42 N9 30.34R 6HR MIN TEMP: 33; 6HR MAX TEMP: 50; Minneapolis FAIR 47 18 31 NW9 30.48S 6HR MIN TEMP: 28; 6HR MAX TEMP: 48; Indianapolis FAIR 49 30 48 NW17G24 30.29R 6HR MIN TEMP: 36; 6HR MAX TEMP: 50; Toronto Canada PTSUNNY 37 23 56 NW15G25 29.99R WCI 28 $$

USA.gov is the U.S. government's official web portal to all federal, state and local government web resources and services.